Weather History for Thermopolis, WY

Change the Weather History Date:

Saturday, November 24, 2012

  Actual Average (KWRL) Record (KWRL)
Temperature  
Mean Temperature 40 °F 26 °F  
Max Temperature 46 °F 39 °F 63 °F (1990)
Min Temperature 33 °F 13 °F -16 °F (2010)
Degree Days  
Heating Degree Days 26 39  
Month to date heating degree days 782  
Since 1 July heating degree days 1644  
Cooling Degree Days 0 0  
Month to date cooling degree days 0  
Year to date cooling degree days 535  
Moisture  
Dew Point 16 °F    
Average Humidity 39    
Maximum Humidity 60    
Minimum Humidity 25    
Precipitation  
Precipitation 0.00 in 0.01 in 0.14 in (1975)
Month to date precipitation 0.30  
Year to date precipitation 7.29  
Sea Level Pressure  
Sea Level Pressure 30.10 in    
Wind  
Wind Speed 16 mph ()    
Max Wind Speed 32 mph    
Max Gust Speed 47 mph    
Visibility 10.0 miles    
Events      
T = Trace of Precipitation, MM = Missing Value Source: Averaged Metar Reports

Daily Weather History Graph

Daily Weather History Graph

Search for Another Location

Airport:

Trip Planner

Search our weather history database for the weather conditions in past years. The results will help you decide how hot, cold, wet, or windy it might be!

Date:

Astronomy

Nov. 24, 2012 Rise Set
Actual Time 7:18 AM MST 4:40 PM MST
Civil Twilight 6:46 AM MST 5:12 PM MST
Nautical Twilight 6:11 AM MST 5:47 PM MST
Astronomical Twilight 5:37 AM MST 6:21 PM MST
Moon 2:31 PM MST (11/24) 3:33 AM MST (11/24)
Length of Visible Light 10h 25m
Length of Day
9h 22m
Waxing Gibbous, 87% of the Moon is Illuminated
Nov 24
Waxing Gibbous
Nov 28
Full
Dec 6
Last Quarter
Dec 13
New
Dec 19
First Quarter

Hourly Weather History & Observations

Time (MST) Temp. Windchill Dew Point Humidity Pressure Visibility Wind Dir Wind Speed Gust Speed Precip Events Conditions
12:15 AM 33.8 °F 23.5 °F 14.0 °F 44% 30.22 in 10.0 mi South 16.1 mph 24.2 mph N/A   Clear
12:35 AM 35.6 °F 25.5 °F 12.2 °F 38% 30.22 in 10.0 mi South 17.3 mph 24.2 mph N/A   Clear
1:15 AM 35.6 °F 25.2 °F 12.2 °F 38% 30.21 in 10.0 mi South 18.4 mph 23.0 mph N/A   Clear
1:35 AM 35.6 °F 24.2 °F 12.2 °F 38% 30.19 in 10.0 mi South 21.9 mph 27.6 mph N/A   Clear
2:15 AM 41.0 °F 29.7 °F 10.4 °F 29% 30.19 in 10.0 mi SSW 31.1 mph 39.1 mph N/A   Clear
2:35 AM 42.8 °F 33.1 °F 10.4 °F 27% 30.19 in 10.0 mi SSW 25.3 mph 36.8 mph N/A   Clear
3:15 AM 42.8 °F 33.5 °F 8.6 °F 25% 30.18 in 10.0 mi SW 23.0 mph 32.2 mph N/A   Clear
3:35 AM 42.8 °F 32.5 °F 10.4 °F 27% 30.17 in 10.0 mi SSW 28.8 mph 35.7 mph N/A   Clear
3:55 AM 42.8 °F 32.9 °F 10.4 °F 27% 30.16 in 10.0 mi SSW 26.5 mph 41.4 mph N/A   Clear
4:15 AM 42.8 °F 32.3 °F 10.4 °F 27% 30.15 in 10.0 mi SSW 29.9 mph 41.4 mph N/A   Clear
4:35 AM 42.8 °F 31.9 °F 8.6 °F 25% 30.14 in 10.0 mi SW 32.2 mph 47.2 mph N/A   Clear
4:55 AM 42.8 °F 32.1 °F 8.6 °F 25% 30.14 in 10.0 mi SSW 31.1 mph 47.2 mph N/A   Clear
5:15 AM 42.8 °F 31.9 °F 8.6 °F 25% 30.13 in 10.0 mi SSW 32.2 mph 43.7 mph N/A   Clear
5:35 AM 41.0 °F 29.8 °F 10.4 °F 29% 30.13 in 10.0 mi South 29.9 mph 35.7 mph N/A   Clear
5:55 AM 41.0 °F 30.0 °F 8.6 °F 26% 30.12 in 10.0 mi South 28.8 mph 38.0 mph N/A   Clear
6:15 AM 39.2 °F 28.5 °F 10.4 °F 31% 30.12 in 10.0 mi South 24.2 mph 29.9 mph N/A   Clear
6:35 AM 37.4 °F 26.1 °F 10.4 °F 33% 30.12 in 10.0 mi South 24.2 mph 29.9 mph N/A   Clear
7:15 AM 39.2 °F 28.0 °F 8.6 °F 28% 30.10 in 10.0 mi South 26.5 mph 35.7 mph N/A   Clear
7:35 AM 35.6 °F 25.2 °F 10.4 °F 35% 30.11 in 10.0 mi South 18.4 mph 26.5 mph N/A   Clear
7:55 AM 35.6 °F 26.2 °F 10.4 °F 35% 30.11 in 10.0 mi SSE 15.0 mph 26.5 mph N/A   Clear
8:15 AM 35.6 °F 27.1 °F 10.4 °F 35% 30.11 in 10.0 mi South 12.7 mph 17.3 mph N/A   Clear
8:35 AM 37.4 °F 28.5 °F 10.4 °F 33% 30.10 in 10.0 mi South 15.0 mph 20.7 mph N/A   Clear
8:55 AM 35.6 °F 26.2 °F 10.4 °F 35% 30.11 in 10.0 mi South 15.0 mph 20.7 mph N/A   Clear
9:15 AM 37.4 °F 28.5 °F 10.4 °F 33% 30.10 in 10.0 mi South 15.0 mph 24.2 mph N/A   Clear
9:35 AM 37.4 °F 29.3 °F 10.4 °F 33% 30.12 in 10.0 mi South 12.7 mph - N/A   Clear
10:15 AM 42.8 °F 36.6 °F 12.2 °F 29% 30.12 in 10.0 mi SW 11.5 mph - N/A   Clear
10:35 AM 41.0 °F 37.1 °F 10.4 °F 29% 30.13 in 10.0 mi South 5.8 mph - N/A   Clear
11:15 AM 46.4 °F 44.3 °F 12.2 °F 25% 30.12 in 10.0 mi WSW 4.6 mph - N/A   Clear
11:35 AM 44.6 °F - 14.0 °F 29% 30.11 in 10.0 mi Calm Calm - N/A   Clear
11:55 AM 46.4 °F - 12.2 °F 25% 30.10 in 10.0 mi Calm Calm - N/A   Clear
12:35 PM 44.6 °F 39.2 °F 12.2 °F 27% 30.09 in 10.0 mi South 10.4 mph - N/A   Clear
12:55 PM 46.4 °F 43.5 °F 12.2 °F 25% 30.08 in 10.0 mi SSE 5.8 mph - N/A   Clear
1:15 PM 44.6 °F 39.7 °F 15.8 °F 31% 30.07 in 10.0 mi South 9.2 mph - N/A   Clear
1:35 PM 44.6 °F 40.2 °F 17.6 °F 34% 30.06 in 10.0 mi SE 8.1 mph 16.1 mph N/A   Clear
1:55 PM 42.8 °F 38.0 °F 14.0 °F 31% 30.06 in 10.0 mi SE 8.1 mph - N/A   Clear
2:15 PM 44.6 °F 40.7 °F 19.4 °F 37% 30.06 in 10.0 mi SSE 6.9 mph - N/A   Clear
2:35 PM 44.6 °F 41.4 °F 19.4 °F 37% 30.06 in 10.0 mi SSW 5.8 mph - N/A   Clear
2:55 PM 42.8 °F 39.3 °F 21.2 °F 42% 30.06 in 10.0 mi West 5.8 mph - N/A   Clear
3:15 PM 41.0 °F 33.9 °F 19.4 °F 42% 30.05 in 10.0 mi NW 12.7 mph - N/A   Clear
3:35 PM 41.0 °F 35.8 °F 19.4 °F 42% 30.05 in 10.0 mi NNW 8.1 mph - N/A   Clear
3:55 PM 41.0 °F 35.8 °F 19.4 °F 42% 30.05 in 10.0 mi North 8.1 mph - N/A   Scattered Clouds
4:15 PM 41.0 °F 34.3 °F 21.2 °F 45% 30.06 in 10.0 mi NNW 11.5 mph - N/A   Clear
4:35 PM 39.2 °F 32.0 °F 21.2 °F 49% 30.06 in 10.0 mi NNW 11.5 mph - N/A   Scattered Clouds
4:55 PM 39.2 °F 31.2 °F 21.2 °F 49% 30.06 in 10.0 mi North 13.8 mph 18.4 mph N/A   Mostly Cloudy
5:15 PM 37.4 °F 28.2 °F 21.2 °F 52% 30.06 in 10.0 mi North 16.1 mph - N/A   Overcast
5:35 PM 37.4 °F 29.8 °F 21.2 °F 52% 30.06 in 10.0 mi NNW 11.5 mph - N/A   Overcast
5:55 PM 37.4 °F 28.9 °F 21.2 °F 52% 30.06 in 10.0 mi NNW 13.8 mph - N/A   Overcast
6:35 PM 37.4 °F 28.2 °F 21.2 °F 52% 30.06 in 10.0 mi North 16.1 mph - N/A   Mostly Cloudy
6:55 PM 37.4 °F 29.8 °F 21.2 °F 52% 30.07 in 10.0 mi North 11.5 mph - N/A   Overcast
7:15 PM 37.4 °F 28.5 °F 21.2 °F 52% 30.07 in 10.0 mi NNW 15.0 mph - N/A   Overcast
7:35 PM 37.4 °F 29.8 °F 21.2 °F 52% 30.07 in 10.0 mi North 11.5 mph - N/A   Overcast
7:55 PM 37.4 °F 29.3 °F 21.2 °F 52% 30.07 in 10.0 mi North 12.7 mph - N/A   Overcast
8:35 PM 37.4 °F 30.3 °F 23.0 °F 56% 30.06 in 10.0 mi North 10.4 mph - N/A   Overcast
9:15 PM 37.4 °F 32.8 °F 23.0 °F 56% 30.06 in 10.0 mi North 5.8 mph - N/A   Overcast
9:35 PM 37.4 °F 33.8 °F 23.0 °F 56% 30.05 in 10.0 mi North 4.6 mph - N/A   Overcast
9:55 PM 37.4 °F 33.8 °F 23.0 °F 56% 30.05 in 10.0 mi NNE 4.6 mph - N/A   Mostly Cloudy
10:15 PM 37.4 °F 33.8 °F 23.0 °F 56% 30.05 in 10.0 mi NNE 4.6 mph - N/A   Mostly Cloudy
10:35 PM 35.6 °F 31.7 °F 23.0 °F 60% 30.05 in 10.0 mi NNE 4.6 mph - N/A   Mostly Cloudy
10:55 PM 35.6 °F 32.8 °F 23.0 °F 60% 30.05 in 10.0 mi SE 3.5 mph - N/A   Overcast
11:15 PM 35.6 °F 31.7 °F 23.0 °F 60% 30.05 in 10.0 mi SE 4.6 mph - N/A   Overcast
11:35 PM 35.6 °F 32.8 °F 23.0 °F 60% 30.05 in 10.0 mi ESE 3.5 mph - N/A   Overcast
11:55 PM 35.6 °F 32.8 °F 23.0 °F 60% 30.05 in 10.0 mi NNW 3.5 mph - N/A   Overcast